Regional Weather Roundup
Issued by NWS

Home | Current Version | Previous Version | Graphics & Text | Print | Product List | Glossary On
Versions: 1 2 3 4 5 6 7 8 9 10 11 12 13 14 15 16 17 18 19 20 21 22 23 24 25 26 27 28 29 30 31 32 33 34 35 36 37 38 39 40 41 42 43 44 45 46 47 48 49 50
000
ASUS43 KDTX 010501
RWRMI
MICHIGAN HOURLY REGIONAL WEATHER ROUNDUP
NATIONAL WEATHER SERVICE DETROIT/PONTIAC MI
100 AM EDT WED JUN 01 2016

NOTE: "FAIR" INDICATES FEW OR NO CLOUDS BELOW 12,000 FEET WITH NO
SIGNIFICANT WEATHER AND/OR OBSTRUCTION TO VISIBILITY.

MIZ047>049-052>055-059>063-066>070-074>076-081>083-010600-
SOUTHEAST LOWER MICHIGAN

CITY           SKY/WX    TMP DP  RH WIND       PRES   REMARKS
ADRIAN         CLEAR     60  53  77 CALM      30.07R
ALMA           CLOUDY    60  53  77 NW5       30.07R
ANN ARBOR      PTCLDY    62  49  62 E5        30.05R
BAD AXE        CLEAR     52  48  86 CALM      30.10R
CARO           CLEAR     54  46  73 E6        30.07S
DETROIT CITY   PTCLDY    58  47  66 NE7       30.06S
DETROIT        PTCLDY    62  45  53 NE8       30.06R
FLINT          PTCLDY    62  46  55 E8        30.06R
GROSSE ILE     CLEAR     61  52  72 NE7       30.04R
HILLSDALE      PTCLDY    65  47  51 E5        30.06R
HOWELL         CLOUDY    63  48  57 E6        30.06R

CITY           SKY/WX    TMP DP  RH WIND       PRES   REMARKS
JACKSON        CLEAR     61  46  57 CALM      30.07R
LAMBERTVILLE   CLOUDY    65  56  74 CALM      30.06R
LANSING        CLOUDY    63  54  72 E8        30.06R
LAPEER         FAIR      55  46  69 E3        30.07S
MASON          PTCLDY    66  50  57 CALM      30.06R
MONROE         CLEAR     60  52  73 E5        30.04S
MT. CLEMENS    CLEAR     55  48  78 N5        30.05S
PONTIAC        CLOUDY    59  45  59 E6        30.06R
PORT HOPE        N/A     59  52  77 E14       30.08F
PORT HURON     CLEAR     54  50  87 CALM      30.07S
TRI CITIES     CLOUDY    61  47  59 E8        30.08R
MIDLAND        FAIR      56  51  82 CALM      30.07R
TROY           CLEAR     60  46  61 E5        30.08S
SAGINAW HB     PTCLDY    55  46  71 NE3       30.07R
$$
MIZ043>046-050>051-056>058-064>065-071>073-077>080-010600-
SOUTHWEST LOWER MICHIGAN

CITY           SKY/WX    TMP DP  RH WIND       PRES   REMARKS
BENTON HARBOR  LGT RAIN  66  55  67 E7        29.97F
BIG RAPIDS     CLOUDY    59  48  67 SE8       30.05S
COLDWATER      CLOUDY    67  50  53 E6        30.03F
FREMONT        FAIR      67  55  64 E6        30.01S
HOLLAND        CLOUDY    69  51  52 E8        30.00F
GRAND RAPIDS   CLOUDY    69  55  60 E7        30.02S
IONIA          FAIR      66  55  69 E6        30.04R
KALAMAZOO      CLOUDY    70  53  54 CALM      30.02F
LUDINGTON      CLOUDY    66  55  66 SE6       29.99S
MARSHALL       CLOUDY    67  51  56 E5        30.04S
MOUNT PLEASANT CLOUDY    55  51  87 CALM      30.07S
MUSKEGON       CLOUDY    70  51  51 E9        29.99F
SOUTH HAVEN    CLOUDY    66  53  61 E6        29.98F
$$
MIZ016>042-010600-
NORTHERN LOWER MICHIGAN

CITY           SKY/WX    TMP DP  RH WIND       PRES   REMARKS
ALPENA         CLEAR     49  45  86 CALM      30.10F
BEAVER ISLAND  MOCLDY    60  46  58 SE15G22   30.02S
BELLAIRE       CLOUDY    63  42  46 E6        30.03S
CADILLAC       CLOUDY    58  43  56 E9        30.05S
CHARLEVOIX     CLOUDY    63  44  50 SE12      30.05S
FRANKFORT      CLOUDY    70  55  60 S9        29.99F
GAYLORD        CLOUDY    56  43  61 SE5       30.07F
GRAYLING       CLOUDY    55  45  69 E5        30.08S
HARBOR SPRINGS CLOUDY    59  45  59 E12       30.05F
HOUGHTON LAKE  CLEAR     53  45  74 CALM      30.08R
MANISTEE       PTCLDY    66  52  59 SE8G16    30.00S
OSCODA         CLEAR     53  46  78 NE5       30.09F
PELLSTON       CLOUDY    58  45  62 SE7       30.06F
ROGERS CITY    CLEAR     56  45  66 SE8       30.10S
TRAVERSE CITY  CLOUDY    65  49  56 MISG      30.01R
$$
MIZ007>008-015-010600-
EASTERN UPPER MICHIGAN

CITY           SKY/WX    TMP DP  RH WIND       PRES   REMARKS
KINROSS          N/A     55  46  71 SE7       30.08S
MACKINAC ISLAN PTCLDY    58  44  59 SE8       30.06F
NEWBERRY       PTCLDY    57  44  62 SE12G17   30.03F
S. S. MARIE    CLEAR     54  48  80 E5        30.08F
MUNISING         N/A     61  45  55 S7        29.97F
$$
MIZ004>006-011>014-085-010600-
CENTRAL UPPER MICHIGAN

CITY           SKY/WX    TMP DP  RH WIND       PRES   REMARKS
MANISTIQUE     CLOUDY    60  49  65 E10G18    29.99F
ESCANABA         N/A    N/A N/A N/A MISG      29.96
MENOMINEE      CLOUDY    60  52  74 E3        29.95F
SAWYER-GWINN   CLOUDY    60  46  59 S10       29.97F
$$
MIZ001>003-009>011-084-010600-
WESTERN UPPER MICHIGAN

CITY           SKY/WX    TMP DP  RH WIND       PRES   REMARKS
IRON MOUNTAIN  CLOUDY    59  49  69 SE3       29.95F
HOUGHTON       CLOUDY    50  46  86 E10       29.92F
COPPER HARBOR    N/A     51  48  89 SW7       29.94F
IRONWOOD       CLOUDY    61  59  94 SE8       29.85R
$$

ABBREVIATIONS USED IN REMARKS
   TC - TEMPERATURE IN CELSIUS
  WCI - WIND CHILL INDEX
   HX - HEAT INDEX
  VSB - VISIBILITY




USA.gov is the U.S. government's official web portal to all federal, state and local government web resources and services.